Regional Weather Roundup
Issued by NWS Green Bay, WI

Home | Current Version | Previous Version | Text Only | Print | Product List | Glossary On
Versions: 1 2 3 4 5 6 7 8 9 10 11 12 13 14 15 16 17 18 19 20 21 22 23 24 25 26 27 28 29 30 31 32 33 34 35 36 37 38 39 40 41 42 43 44 45 46 47 48 49 50
000
ASUS43 KGRB 011511
RWRGRB

NORTH-CENTRAL AND NORTHEAST WISCONSIN REGIONAL WEATHER ROUNDUP
NATIONAL WEATHER SERVICE GREEN BAY WI
1000 AM CDT SAT AUG 01 2015

WIZ005-009-010>012-018-019-011600-
NORTH CENTRAL WISCONSIN

CITY           SKY/WX    TMP DP  RH WIND       PRES   REMARKS
IRONWOOD       SUNNY     68  55  64 NW12      29.90S
MANITOWISH WTR SUNNY     68  56  65 W10       29.94S
ARBOR VITAE    SUNNY     69  57  65 NW8       29.94F
EAGLE RIVER    SUNNY     68  52  55 NW9G16    29.93F
LAND O LAKES   MOSUNNY   70  52  53 N10       29.93F
RHINELANDER    SUNNY     69  54  58 NW8       29.96R
PHILLIPS       SUNNY     68  55  62 W6        29.96S
ANTIGO         SUNNY     68  56  64 NW8       29.95F
TOMAHAWK       SUNNY     68  55  62 NW8       29.96S
MERRILL        NOT AVBL
$$

WIZ013-073-011600-
NORTHEAST WISCONSIN

CITY           SKY/WX    TMP DP  RH WIND       PRES   REMARKS
IRON MOUNTAIN  SUNNY     71  53  52 W14       29.89S
MARINETTE      SUNNY     72  55  56 W6        29.89R
OCONTO         SUNNY     74  55  50 W9        29.89F
$$

WIZ017-030-035>037-045-011600-
CENTRAL WISCONSIN

CITY           SKY/WX    TMP DP  RH WIND       PRES   REMARKS
MEDFORD        SUNNY     71  53  54 NW8       29.97S
WAUSAU         SUNNY     74  51  44 N7G18     29.94F
MOSINEE        MOSUNNY   72  52  49 NW9G17    29.97F
MARSHFIELD     PTSUNNY   74  51  44 NW8       29.97F
WISC RAPIDS    PTSUNNY   74  52  46 NW5       29.98F
STEVENS POINT  PTSUNNY   71  51  49 NW8       29.97F
WAUPACA        MOSUNNY   76  51  41 W8        29.96S
SHAWANO        SUNNY     74  55  51 W6        29.93F
CLINTONVILLE   SUNNY     73  48  40 NW10      29.94S
$$

WIZ038-039-048-051-011600-
FOX VALLEY

CITY           SKY/WX    TMP DP  RH WIND       PRES   REMARKS
NWS GREEN BAY  SUNNY     74  56  53 NW13      29.92F
APPLETON       MOSUNNY   73  50  43 W10       29.95S
OSHKOSH        SUNNY     75  53  46 W10       29.94F
FOND DU LAC    SUNNY     76  53  44 W10       29.95F
$$

WIZ022-050-052-011600-
EAST CENTRAL WISCONSIN

CITY           SKY/WX    TMP DP  RH WIND       PRES   REMARKS
STURGEON BAY   SUNNY     72  54  53 W10       29.92S
MANITOWOC      SUNNY     76  51  41 MISG      29.92F
SHEBOYGAN      SUNNY     75  55  49 W12       29.94S
$$

LMZ563-521-522-541>543-011600-
LAKESHORE

STATION/POSITION TIME  TEMP    WIND        PRES    VSBY  WAVE
                       AIR SEA DIR/SP/G                  HT/PER
                 (UTC) (F)     (DEG/KT/KT) (MB)    (MI)  (FT/S)
SHEBOYGAN LKSHOR 1500   74     290/  9/ 11 1013.7F
KEWAUNEE LKSHORE 1400   69     300/  5/ 11 1012.3R
ALGOMA MARINA    1427          270/  7/  8   N/A
NORTHPORT PIER   1400   69     310/  7/  9 1011.9S
N MID LAKE BUOY  1450   65 68  270/ 10/ 12 1011.2F         1/ 3
S GREEN BAY BUOY 1500   65 69  240/  8/  8 1014.0
SISTER BAY LKSHO 1429   74     300/  6/  7   N/A
CHAMBERS ISLAND  1400   69     260/  5/  8 1011.9S
MENOMINEE LKSHOR 1400   69     250/  8/ 11 1012.8F
$$



USA.gov is the U.S. government's official web portal to all federal, state and local government web resources and services.